Find Starlink 33677

NORAD ID: 63410 Int'l Des: 2025-065 Owner: SPXS Country: US Constellation: starlink operational
LEOCIRCULAR

現在のビュー

3D地球を読み込み中...

About Starlink 33677

Starlink 33677 (NORAD 63410) is a starlink constellation satellite (v2 mini) launched Mar 31, 2025 by SPXS of US. It operates in LEO, CIRCULAR orbit with a mass of 575.00 kg.

Starlink 33677について

説明を読み込み中...

次回通過

Passes for default location (London). Set your location on the main map for personalized predictions.

高度履歴

Loading altitude history...

軌道要素

1 63410U 25065M 26167.96567612 .00011426 00000-0 42410-3 0 9994
2 63410 42.9958 266.3482 0003706 277.1311 82.9119 15.27576965 68021
Epoch: Jun 16, 2026 • Age: 34 hours

現在のステータス

高度 484.8 km
速度 7.63 km/s
衛星直下点 24.41°N, 11.59°E
打ち上げ日 Mar 31, 2025
運用期間 1.2 years
タイプ internet

技術仕様

分類 Payload
質量 575.00 kg
乾燥質量 530.00 kg
総質量 575.00 kg
長さ 0.30 m
直径 4.10 m
スパン 29.00 m
形状 Box + pan
製造者 SPXS
バスタイプ Starlink V2MO
フェーズステータス In Orbit
所有者/国 SPXS/US

Most Searched